TimeCDT,TemperatureF,Dew PointF,Humidity,Sea Level PressureIn,VisibilityMPH,Wind Direction,Wind SpeedMPH,Gust SpeedMPH,PrecipitationIn,Events,Conditions,WindDirDegrees,DateUTC
12:53 AM,73.9,72.0,93,30.00,10.0,Calm,Calm,-,N/A,,Clear,0,2013-10-03 05:53:00
1:53 AM,73.0,72.0,96,29.98,9.0,ENE,3.5,-,N/A,,Clear,60,2013-10-03 06:53:00
2:06 AM,73.4,71.6,94,29.98,8.0,Calm,Calm,-,N/A,,Scattered Clouds,0,2013-10-03 07:06:00
2:15 AM,73.4,71.6,94,29.98,7.0,Calm,Calm,-,N/A,,Mostly Cloudy,0,2013-10-03 07:15:00
2:53 AM,73.0,72.0,96,29.97,2.5,ENE,4.6,-,N/A,,Overcast,60,2013-10-03 07:53:00
3:02 AM,73.4,71.6,94,29.97,1.2,ENE,4.6,-,N/A,,Overcast,60,2013-10-03 08:02:00
3:43 AM,73.4,71.6,94,29.96,0.8,ENE,3.5,-,N/A,,Mist,70,2013-10-03 08:43:00
3:53 AM,72.0,72.0,100,29.96,0.5,ENE,4.6,-,N/A,Fog,Fog,70,2013-10-03 08:53:00
4:53 AM,72.0,72.0,100,29.95,0.5,ENE,5.8,-,N/A,Fog,Fog,70,2013-10-03 09:53:00
5:01 AM,71.6,71.6,100,29.95,0.2,East,5.8,-,N/A,Fog,Fog,80,2013-10-03 10:01:00
5:15 AM,71.6,71.6,100,29.96,0.2,ENE,4.6,-,N/A,Fog,Fog,60,2013-10-03 10:15:00
5:45 AM,73.4,71.6,94,29.96,0.2,East,4.6,-,N/A,Fog,Fog,80,2013-10-03 10:45:00
5:53 AM,73.0,72.0,96,29.96,0.2,ENE,4.6,-,N/A,Fog,Fog,60,2013-10-03 10:53:00
6:04 AM,73.4,71.6,94,29.97,0.5,ENE,4.6,-,N/A,Fog,Fog,70,2013-10-03 11:04:00
6:53 AM,73.0,72.0,96,29.98,0.2,ENE,3.5,-,N/A,Fog,Fog,60,2013-10-03 11:53:00
7:53 AM,73.0,73.0,100,29.99,0.2,ENE,3.5,-,N/A,Fog,Fog,70,2013-10-03 12:53:00
8:10 AM,73.4,73.4,100,30.00,0.5,ENE,5.8,-,N/A,Fog,Fog,70,2013-10-03 13:10:00
8:40 AM,73.4,73.4,100,30.00,1.2,East,5.8,-,N/A,,Overcast,90,2013-10-03 13:40:00
8:53 AM,73.9,73.9,100,30.01,1.2,East,5.8,-,N/A,,Overcast,80,2013-10-03 13:53:00
9:43 AM,75.2,73.4,94,30.02,4.0,Calm,Calm,-,N/A,,Overcast,0,2013-10-03 14:43:00
9:53 AM,75.0,73.9,96,30.03,4.0,Calm,Calm,-,N/A,,Overcast,0,2013-10-03 14:53:00
10:22 AM,78.8,75.2,89,30.03,7.0,East,5.8,-,N/A,,Overcast,80,2013-10-03 15:22:00
10:53 AM,81.0,75.0,82,30.03,10.0,East,8.1,-,N/A,,Mostly Cloudy,100,2013-10-03 15:53:00
11:17 AM,82.4,73.4,74,30.03,10.0,ESE,5.8,-,N/A,,Mostly Cloudy,110,2013-10-03 16:17:00
11:53 AM,84.0,73.9,72,30.02,10.0,SE,6.9,-,N/A,,Mostly Cloudy,130,2013-10-03 16:53:00
12:00 PM,84.2,73.4,70,30.01,10.0,ESE,6.9,-,N/A,,Scattered Clouds,110,2013-10-03 17:00:00
12:53 PM,84.0,72.0,67,30.00,10.0,SE,3.5,-,N/A,Rain,Rain,130,2013-10-03 17:53:00
1:53 PM,84.0,73.9,72,29.97,10.0,Calm,Calm,-,0.02,,Mostly Cloudy,0,2013-10-03 18:53:00
2:00 PM,84.2,73.4,70,29.96,10.0,Variable,5.8,-,N/A,,Mostly Cloudy,0,2013-10-03 19:00:00
2:53 PM,87.1,72.0,61,29.95,10.0,ESE,8.1,-,N/A,,Mostly Cloudy,110,2013-10-03 19:53:00
3:53 PM,88.0,72.0,59,29.94,10.0,East,9.2,-,N/A,,Mostly Cloudy,100,2013-10-03 20:53:00
4:48 PM,86.0,69.8,58,29.92,10.0,ESE,8.1,-,N/A,,Clear,110,2013-10-03 21:48:00
4:53 PM,84.9,70.0,61,29.92,10.0,East,6.9,-,N/A,,Clear,90,2013-10-03 21:53:00
5:53 PM,84.0,71.1,65,29.93,10.0,East,8.1,-,N/A,,Scattered Clouds,100,2013-10-03 22:53:00
6:53 PM,81.0,72.0,74,29.94,10.0,East,6.9,-,N/A,,Partly Cloudy,100,2013-10-03 23:53:00
7:53 PM,79.0,73.0,82,29.95,10.0,East,6.9,-,N/A,,Clear,100,2013-10-04 00:53:00
8:53 PM,78.1,73.9,87,29.97,10.0,East,9.2,-,N/A,,Clear,100,2013-10-04 01:53:00
9:53 PM,77.0,73.9,90,29.98,10.0,ENE,3.5,-,N/A,,Partly Cloudy,70,2013-10-04 02:53:00
10:26 PM,77.0,73.4,89,29.99,10.0,East,4.6,-,N/A,,Mostly Cloudy,90,2013-10-04 03:26:00
11:26 PM,77.0,73.4,89,29.98,10.0,East,6.9,-,N/A,,Mostly Cloudy,100,2013-10-04 04:26:00
11:53 PM,77.0,73.9,90,29.98,10.0,ESE,6.9,-,N/A,,Mostly Cloudy,110,2013-10-04 04:53:00